sat.trackr.live / text

‹ back to catalog

STARLINK-35266

NORAD 65804 · 2025-218P

PAYLOAD ACTIVE UNKNOWN

§ Identity

Operator
Country
US
Launch date
2025-09-26
Launch site
AFWTR
Launch vehicle
Mass (kg)
RCS (m²)

Purposes: comms

External: N2YO · Heavens-Above · Gunter

§ Orbital elements

Epoch: 2026-09-20T14:01:33.551040Z

Period
93.91 min
Inclination
97.2842°
Eccentricity
0.0001803
Mean motion
15.33427306 rev/d
Perigee alt
464.4 km
Apogee alt
466.8 km
Semi-major
6,843.7 km
B*
2.7136e-4
RAAN
120.9135°
Arg perigee
94.4227°
Mean anomaly
265.7222°
Rev number
5,434

§ Raw data

STARLINK-352661 65804U 25218P   26263.58441610  .00008691  00000+0  27136-3 0  99942 65804  97.2842 120.9135 0001803  94.4227 265.7222 15.33427306 54344

JSON: /api/v1/satellites/65804 · /tle

For live sub-satellite position, see the globe view (requires WebGL).

§ Visibility from observer

Set your observer location to see the next 7 days of passes ≥ 10°. The values pass through the URL so the page stays shareable.

No JS? Fill the form by hand. The geolocation button needs JavaScript.